COSMOS 2251 DEB, 34474

Orbit data source: Space-Track

COSMOS 2251 DEB, 34474 is space debris in LEO originally from a launch on Wed, 16 Jun 1993 UTC launched from the Plesetsk Missile And Space Complex (PKMTR). The debris from Iridium 33, an American commercial communications satellite, has been tracked extensively since its accidental collision with the defunct Russian satellite Cosmos 2251 in 2009. This event, occurring at high speed in low Earth orbit (LEO), generated thousands of pieces of space debris, significantly increasing the risk of further collisions. The Iridium 33 debris cloud has impacted space traffic management and orbital debris mitigation strategies, making it a subject of ongoing study in space situational awareness.

Loading next visibility...
Identifier
34474, 1993-036TT
Orbit
LEO
Country
Flag of CISCIS
Related business
Manufacturer
Unknown
Mission
Spacecraft
Bus & Motor
Unknown
Mass
Unknown
Launch date (UTC)
1993-06-16 (32 years ago)
Launch vehicle
Unknown
Launch site
Plesetsk Missile And Space Complex (PKMTR)
Object type
Payload
Rocket body
Debris
Shape & HBR
Unknown shape, 0.1 m
Radar Cross Section
Small (<0.1 m²)

Expand to show TLE details & history
Last TLE update: 7 hours ago

TLE from 7 hours ago
0 COSMOS 2251 DEB
1 34474U 93036TT  25303.73936663  .00004709  00000-0  24025-2 0  9994
2 34474  74.0783  41.2210 0200516 126.3663  25.1162 14.06067168849045
Epoch: 2025-10-30T17:44Z
TLE epoch observation values (Epoch: 2025-10-30T17:44:41.276Z)
Latitude
26.42355°
Longitude
-92.35011°
Altitude
744.61 km
Speed
7.552 km/s
True Right ascension
14h 12m 27s
True Declination
26° 17' 11"
Sunlit
Object was in daylight at epoch
Visualization orbit readout
Latitude
Unknown
Longitude
Unknown
Altitude
Unknown
Speed
Unknown
Apparent Right ascension
Unknown
Apparent Declination
Unknown
Sunlit
N/A
Visualization observer readout
Local Sidereal Time
20:44:54
Azimuth
Unknown
Elevation
Unknown
Doppler factor
Unknown
Orbital elements
Apogee altitude
1,015.861 km
Perigee altitude
725.166 km
Semi-major axis
7,248.65 km
Eccentricity
0.02005
Inclination
74.0783°
RAAN
41.221°
Arg. of periapsis
126.3663°
True anomaly
26.11407°
Mean anomaly
25.1162°
Eccentric anomaly
25.61284°
Mean motion
3.51688 °/min
Orbital period
102.36 mins
BSTAR
0.0024025

Documentation

Showing up to 5 results
|